Location: Pallagorio
(39.3000°N, 16.9000°E)
Time: 21:52:45
(UTC+00:00)

Meteor 2-15 Rocket - Pass Details

Date: 24 January 2021
Orbit: 940 x 955 km, 82.5° (Epoch: 02 March)

Event Time Altitude Azimuth Distance (km) Brightness Sun altitude
Rises 18:09:48 0° 352° (N) 3,642 7.5 -24.3°
Reaches altitude 10° 18:12:18 10° 353° (N) 2,693 6.8 -24.8°
Maximum altitude 18:18:29 86° 83° (E) 963 4.3 -26.0°
Drops below altitude 10° 18:24:37 10° 172° (S) 2,672 6.7 -27.2°
Sets 18:27:06 0° 173° (S) 3,612 7.4 -27.6°
